This demonstration page uses our WeatherBlox Daily Observations layout. Learn more.

39.92423, -83.80882

Hourly Observations for April 1, 2017

Temp ( °F °C ) Dew Point ( °F °C ) Humidity (%) Winds ( mph kmh ) Pressure ( in mb ) Visibility ( mi km ) Precip ( " mm )
12:09 am 00:09 Cloudy 43 6 39 4 87 87 WNW 10 17 29.94 1014 10 16.0934 0 0
12:37 am 00:37 Cloudy 43 6 39 4 87 87 WNW 10 17 29.94 1014 10 16.0934 0 0
12:56 am 00:56 Cloudy 42 5.6 40 4.4 92 92 WNW 12 19 29.94 1014 10 16.0934 0 0
1:11 am 01:11 Cloudy 43 6 39 4 87 87 WNW 13 20 29.97 1015 10 16.0934 0 0
1:56 am 01:56 Cloudy 41 5 39 3.9 93 93 NW 12 19 29.96 1015 10 16.0934 0 0.0254
2:31 am 02:31 Cloudy with Light Rain 39 4 37 3 93 93 NW 12 19 30 1016 8 12.87472 0 0.0254
2:56 am 02:56 Cloudy with Light Rain 40 4.4 39 3.9 97 97 WNW 10 17 29.98 1015 8 12.87472 0 0.0254
3:16 am 03:16 Cloudy with Light Rain 39 4 39 4 100 100 NW 7 11 30 1016 4 6.43736 0 0.0254
3:56 am 03:56 Cloudy with Light Rain 40 4.4 38 3.3 93 93 NW 9 15 30.01 1016 8 12.87472 0 0.0254
4:56 am 04:56 Cloudy 39 3.9 37 2.8 93 93 NNW 12 19 30.02 1017 10 16.0934 0 0.0254
5:17 am 05:17 Cloudy 39 4 37 3 93 93 NW 10 17 30.03 1017 10 16.0934 0 0
5:38 am 05:38 Cloudy 39 4 36 2 87 87 NW 9 15 30.03 1017 10 16.0934 0 0
5:56 am 05:56 Cloudy 39 3.9 36 2.2 89 89 NW 12 19 30.04 1017 10 16.0934 0 0
6:44 am 06:44 Cloudy 37 3 36 2 93 93 NW 12 19 30.12 1020 10 16.0934 0 0
6:56 am 06:56 Cloudy 38 3.3 35 1.7 89 89 NW 14 22 30.08 1019 10 16.0934 0 0
7:33 am 07:33 Cloudy 37 3 36 2 93 93 NNW 12 19 30.12 1020 10 16.0934 0 0
7:42 am 07:42 Cloudy 37 3 36 2 93 93 NW 12 19 30.15 1021 10 16.0934 0 0
7:56 am 07:56 Cloudy 38 3.3 35 1.7 89 89 NW 9 15 30.11 1020 10 16.0934 0 0
8:15 am 08:15 Cloudy 37 3 36 2 93 93 NNW 9 15 30.15 1021 10 16.0934 0 0
8:56 am 08:56 Cloudy 38 3.3 36 2.2 93 93 N 10 17 30.14 1021 10 16.0934 0 0
9:45 am 09:45 Cloudy 37 3 36 2 93 93 N 10 17 30.18 1022 10 16.0934 0 0
9:56 am 09:56 Cloudy 38 3.3 35 1.7 89 89 N 9 15 30.16 1021 10 16.0934 0 0
10:56 am 10:56 Cloudy 39 3.9 36 2.2 89 89 NW 8 13 30.18 1022 10 16.0934 0 0
11:56 am 11:56 Cloudy 41 5 36 2.2 82 82 NNW 10 17 30.18 1022 10 16.0934 0 0
12:56 pm 12:56 Cloudy 43 6.1 37 2.8 80 80 NW 9 15 30.18 1022 10 16.0934 0 0
1:56 pm 13:56 Cloudy 43 6.1 37 2.8 80 80 NW 8 13 30.2 1023 10 16.0934 0 0
2:56 pm 14:56 Cloudy 43 6.1 37 2.8 80 80 NNW 7 11 30.2 1023 10 16.0934 0 0
3:19 pm 15:19 Cloudy 43 6 37 3 81 81 WNW 12 19 30.21 1023 10 16.0934 0 0
3:56 pm 15:56 Cloudy 43 6.1 37 2.8 80 80 NNW 9 15 30.2 1023 10 16.0934 0 0
4:56 pm 16:56 Cloudy 44 6.7 37 2.8 76 76 N 6 9 30.21 1023 10 16.0934 0 0
5:56 pm 17:56 Cloudy 45 7.2 36 2.2 71 71 N 7 11 30.22 1023 10 16.0934 0 0
6:56 pm 18:56 Cloudy 45 7.2 37 2.8 74 74 N 3 6 30.24 1024 10 16.0934 0 0
7:56 pm 19:56 Cloudy with Light Rain 45 7.2 44 6.7 97 97 WNW 16 26 29.82 1010 2 3.21868 0 0.0254
8:34 pm 20:34 Partly Cloudy 43 6 36 2 76 76 Calm 30.24 1024 10 16.0934 0 0
8:56 pm 20:56 Clear 41 5 36 2.2 82 82 ESE 3 6 30.25 1024 10 16.0934 0 0
9:56 pm 21:56 Clear 37 2.8 34 1.1 89 89 E 3 6 30.26 1025 10 16.0934 0 0
10:56 pm 22:56 Clear 38 3.3 35 1.7 89 89 ESE 5 7 30.27 1025 10 16.0934 0 0
11:56 pm 23:56 Clear 40 4.4 36 2.2 86 86 SSE 5 7 30.27 1025 10 16.0934 0 0

Powered by AerisWeather